Location: Steffen West Oil Field
(38.2820°N, 99.5990°W)
Time: 14:15:43
(UTC+00:00)

Daily predictions for brighter satellites

Satellite Brightness Start Highest point End
(mag) Time Altitude Azimuth Time Altitude Azimuth Time Altitude Azimuth
Cosmos 841 Rocket 3.8 12:01:57 10° S 12:07:01 67° ESE 12:12:08 10° NNE
Cosmos 1898 Rocket 3.5 12:04:49 16° NNW 12:08:59 83° ENE 12:14:08 10° SSE
FALCON 9 R/B 3.3 12:08:09 19° SW 12:09:40 20° SSW 12:12:19 10° SSE
Cosmos 2237 Rocket 2.4 12:05:13 10° SSW 12:10:50 74° ESE 12:16:32 10° NNE
Cosmos 2333 Rocket 3.0 12:13:27 29° NW 12:13:27 29° NW 12:17:51 10° N
deb Chang Zheng 4 3.5 12:09:16 10° N 12:13:27 57° WNW 12:17:34 10° SSW
GPS 2-04 Rocket1 3.6 12:13:17 33° SW 12:14:09 37° SSW 12:18:01 10° SE
ATLAS CENTAUR R/B 4.0 12:11:51 10° SSE 12:14:31 19° ESE 12:17:08 10° ENE
Cosmos 1570 Rocket 4.3 12:11:19 10° S 12:16:29 67° ESE 12:21:40 10° NNE
Cosmos 2219 Rocket 2.9 12:17:16 30° WNW 12:17:18 30° WNW 12:22:12 10° N
Cosmos 2034 Rocket 4.0 12:11:56 10° S 12:18:18 88° ESE 12:24:43 10° N
YAOGAN 6 2.9 12:19:43 10° NNE 12:23:25 71° E 12:27:05 10° S
Cosmos 1953 2.1 12:19:50 10° S 12:23:48 76° W 12:27:47 10° N
FALCON 9 DEB 3.1 12:25:36 44° W 12:26:21 58° NW 12:29:44 10° NE
Nadezhda 4 Rocket 3.9 12:25:34 10° N 12:31:42 88° W 12:37:49 10° S
PSLV R/B 3.8 12:28:05 10° S 12:32:09 70° WSW 12:36:17 10° NNW
COSMOS 2428 3.5 12:30:54 23° W 12:32:44 28° WNW 12:37:35 10° N
Cosmos 1461 3.7 12:30:57 24° WSW 12:33:08 37° NW 12:37:32 10° NNE
Cosmos 1892 Rocket 4.1 12:31:19 22° NW 12:33:25 35° W 12:37:23 10° SSW
Cosmos 2208 Rocket 4.2 12:29:56 10° SSW 12:35:22 82° ESE 12:40:50 10° NNE
GEOS 3 Rocket 3.7 12:30:13 10° SSE 12:35:31 69° WSW 12:40:17 13° NW
ERS-2 2.5 12:32:16 10° S 12:35:42 40° W 12:37:40 21° NW
Cosmos 1908 3.1 12:32:17 10° S 12:36:04 85° W 12:39:53 10° N
Meteor PRIRODA 4.3 12:35:18 10° N 12:38:32 31° WNW 12:41:46 10° SW
CENTAUR R/B 4.4 12:34:29 10° S 12:39:18 30° ESE 12:44:46 10° NE
USA 305 4.5 12:36:32 10° SSW 12:40:26 37° SE 12:44:21 10° ENE
Cosmos 1814 Rocket 3.9 12:37:46 10° SSW 12:42:53 78° WNW 12:48:02 10° NNE
Cosmos 1980 3.8 12:38:00 10° SW 12:43:32 55° WNW 12:49:06 10° NNE
COSMO-SKYMED 1 3.5 12:41:06 10° SSW 12:44:46 27° W 12:47:20 16° NW
Cosmos 1937 Rocket 3.5 12:39:33 10° NNW 12:44:47 64° WSW 12:49:56 10° S
Cosmos 921 Rocket 4.1 12:43:59 20° W 12:44:55 22° WNW 12:48:14 10° NNW
Cosmos 372 Rocket 4.3 12:43:53 10° NNW 12:49:09 70° ENE 12:54:21 10° SSE
Envisat 3.0 12:44:20 10° N 12:49:20 62° WNW 12:54:20 10° SSW
NOAA 6 4.0 12:46:04 10° NNE 12:51:17 84° WNW 12:56:28 10° SSW
SJ 16-02 3.2 12:52:18 12° WSW 12:52:18 12° WSW 12:53:33 10° WSW
Meteor 2-13 Rocket 4.5 12:45:43 10° NNW 12:51:45 60° W 12:57:46 10° S
USA 306 4.0 12:48:05 10° SSW 12:52:10 47° SE 12:56:15 10° ENE
SWAS 4.5 12:48:11 10° SSW 12:52:25 86° ESE 12:56:43 10° NNE
CZ-4B DEB 4.2 12:55:11 10° N 13:00:44 71° WNW 13:06:15 10° SSW
CZ-4B R/B 4.2 13:00:30 10° NNW 13:02:39 15° WNW 13:04:50 10° WSW
CZ-2C R/B 2.2 13:00:06 10° WSW 13:03:58 42° S 13:07:36 10° E
IUS R/B (1) 4.5 13:05:35 10° S 13:06:05 10° SSE 13:06:37 10° SSE
USA 276 4.3 13:05:16 10° WSW 13:06:45 13° SW 13:08:16 10° SSW
Cosmos 2026 Rocket 4.2 13:02:35 10° N 13:08:58 84° E 13:15:22 10° S
Lacrosse 4 Rocket 1.3 13:07:06 10° SSW 13:11:16 76° WNW 13:15:35 10° NNE
Cosmos 1703 3.6 13:07:57 10° NNW 13:11:40 44° W 13:15:23 10° SSW
Cosmos 1340 3.0 13:11:28 10° NNW 13:15:04 44° W 13:18:39 10° SSW
Cosmos 1346 Rocket 3.3 13:12:29 10° N 13:16:26 63° E 13:20:22 10° SSE
Cosmos 1606 Rocket 3.9 13:13:04 10° S 13:17:21 71° E 13:21:39 10° NNE
Cosmos 540 Rocket 4.4 13:14:18 10° WSW 13:18:27 25° WNW 13:22:38 10° N
Cosmos 1689 Rocket 4.0 13:17:38 10° WSW 13:19:02 13° W 13:20:25 10° WNW
Lacrosse 5 rocket 1.8 13:16:38 10° NNW 13:20:22 50° NE 13:23:56 10° ESE
Cosmos 1939 Rocket 3.3 13:18:25 10° NNE 13:22:20 66° ESE 13:26:10 10° S
BREEZE M DEB (TANK) 2.1 13:21:06 10° W 13:23:13 41° NNW 13:27:04 10° NE
Cosmos 44 Rocket 3.9 13:21:07 10° NW 13:26:02 43° WSW 13:30:55 10° S
